SL-19 DEB, 23485

Orbit data source: Space-Track

SL-19 DEB, 23485 is space debris in LEO originally from a launch on Mon, 26 Dec 1994 UTC launched from the Tyuratam Missile And Space Complex (TTMTR). Debris objects in space refer to the collection of defunct objects orbiting the Earth. Examples of debris include non-operational satellites, rocket bodies, and fragments generated from explosions, collisions, or faulty payload assembly.

Loading next visibility...
Identifier
23485, 1994-085H
Orbit
LEO
Last TLE update
4 days ago
Origin
Manufacturer
Unknown
Mission
Spacecraft
Bus & Motor
Unknown
Mass
Unknown
Launch date (UTC)
1994-12-26 (31 years ago)
Launch vehicle
Unknown
Launch site
Tyuratam Missile And Space Complex (TTMTR)
Object type
Payload
Rocket body
Debris
Shape & HBR
Unknown
Radar Cross Section
Small (<0.1 m²)

Expand to show TLE details & history

TLE from 4 days ago
0 SL-19 DEB
1 23485U 94085H   25180.01589327  .00003734  00000-0  10501+0 0  9992
2 23485  64.6602  32.9833 0110597 243.0756 115.8833 11.30532445257401
Epoch: 2025-06-29T00:22Z
TLE epoch observation values (Epoch: 2025-06-29T00:22:53.178Z)
Latitude
-0.00005°
Longitude
109.91559°
Altitude
2,050.677 km
Speed
6.861 km/s
True Right ascension
02h 11m 55s
True Declination
0° 00' 00"
Sunlit
Object was in daylight at epoch
Visualization orbit readout
Latitude
-64.41378°
Longitude
3.0079°
Altitude
1,945.809 km
Speed
6.957 km/s
Apparent Right ascension
00h 17m 23s
Apparent Declination
-70° 19' 31"
Sunlit
Object is in full shadow
Visualization observer readout
Local Sidereal Time
15:21:36
Azimuth
157.043° SSE
Elevation
-51.573°
Doppler factor
1
Orbital elements
Apogee altitude
2,099.255 km
Perigee altitude
1,913.792 km
Semi-major axis
8,384.66 km
Eccentricity
0.01106
Inclination
64.6602°
RAAN
32.9833°
Arg. of periapsis
243.0756°
True anomaly
Unknown
Mean anomaly
115.8833°
Eccentric anomaly
Unknown
Mean motion
2.82693 °/min
Orbital period
127.35 mins
BSTAR
0.10501
Loading maneuver chart data...
Loading SW <> Apogee altitude chart data...
Loading historical data...
Loading historical data...
Loading historical data...
Loading historical data...
Loading historical data...
Loading historical data...
Loading historical data...

SL-19 DEB Visibility forecast

Observer location: undefined°, undefined°

Span
Click to sort rows by Start time (UTC) header in descending order
Start Az.
Max El. time (UTC)
Max El. Az.
Max El.
End time (UTC)
End Az.
11 mins2025-07-03 12:46:23.966Z125.789° SE2025-07-03 12:52:23.966Z93.619° ESE15.2°2025-07-03 12:57:23.966Z67.333° ENE
22 mins2025-07-03 14:51:23.966Z197.016° SSW2025-07-03 15:01:23.966Z132.283° SE43.645°2025-07-03 15:13:23.966Z35.447° NE
20 mins2025-07-03 17:05:23.966Z257.836° W2025-07-03 17:15:23.966Z324.579° NNW32.362°2025-07-03 17:25:23.966Z26.043° NE
14 mins2025-07-03 19:25:23.966Z316.647° NNW2025-07-03 19:32:23.966Z356.916° N19.332°2025-07-03 19:39:23.966Z35.809° NE
18 mins2025-07-03 21:41:23.966Z337.878° N2025-07-03 21:49:23.966Z27.316° NE26.409°2025-07-03 21:59:23.966Z87.428° E
22 mins2025-07-03 23:53:23.966Z329.129° NNW2025-07-04 00:04:23.966Z85.451° E44.564°2025-07-04 00:15:23.966Z145.209° SSE
16 mins2025-07-04 02:07:23.966Z303.076° NW2025-07-04 02:14:23.966Z260.559° W24.268°2025-07-04 02:23:23.966Z206.98° SW
|